sat.trackr.live / text

‹ back to catalog

QIANFAN-4

NORAD 60382 · 2024-140D

PAYLOAD ACTIVE UNKNOWN

§ Identity

Operator
Country
PRC
Launch date
2024-08-06
Launch site
TAISC
Launch vehicle
Mass (kg)
RCS (m²)

External: N2YO · Heavens-Above · Gunter

§ Orbital elements

Epoch: 2026-09-22T21:13:37.815744Z

Period
106.59 min
Inclination
88.9667°
Eccentricity
0.0015078
Mean motion
13.51021082 rev/d
Perigee alt
1,057.3 km
Apogee alt
1,079.7 km
Semi-major
7,446.6 km
B*
4.0575e-6
RAAN
269.6577°
Arg perigee
89.4208°
Mean anomaly
270.8671°
Rev number
10,580

§ Raw data

QIANFAN-41 60382U 24140D   26265.88446546  .00000015  00000+0  40575-5 0  99972 60382  88.9667 269.6577 0015078  89.4208 270.8671 13.51021082105807

JSON: /api/v1/satellites/60382 · /tle

For live sub-satellite position, see the globe view (requires WebGL).

§ Visibility from observer

Set your observer location to see the next 7 days of passes ≥ 10°. The values pass through the URL so the page stays shareable.

No JS? Fill the form by hand. The geolocation button needs JavaScript.